Home > Weather > Falkensee > Past weeks

Flag for Germany Past Weather in Falkensee, Brandenburg, Germany — Yesterday and Last 2 Weeks

Now
73 °F

Scattered clouds.


Feels Like: 77 °F
Forecast: 64 / 87 °F
Wind: 6 mph from North

Location: Berlin-Tegel

Current Time: Jul 24, 2016 at 10:54:05 AM

Latest Report: Jul 24, 2016 at 10:20 AM


Visibility: N/A

Pressure: 30.09 "Hg

Humidity: 57%

Dew Point: 57 °F

Location of FalkenseeLocation

Past Weather in Falkensee — Graph

°F

Falkensee Temperature Yesterday

Maximum temperature yesterday: 82 °F (at 2:20 PM)
Minimum temperature yesterday: 61 °F (at 4:50 AM)
Average temperature yesterday: 72 °F

High & Low Weather Summary for the Past Weeks

 TemperatureHumidityPressure
High88 °F (Jul 10, 4:20 PM)94% (Jul 13, 11:20 AM)30.24 "Hg (Jul 13, 11:20 AM)
Low48 °F (Jul 16, 5:20 AM)13% (Jul 22, 2:50 PM)29.71 "Hg (Jul 11, 2:50 AM)
Average69 °F60%30.00 "Hg
* Reported Jul 9 9:20 AM — Jul 24 9:20 AM, Falkensee, Weather by CustomWeather, © 2016

Note: Actual official high and low records may vary slightly from our data, if they occured in-between our weather recording intervals... More about our weather records

Advertising

Falkensee Weather History for the Previous 24 Hours

Scroll right to see more
 ConditionsComfort  
Time TempWeatherWind HumidityBarometerVisibility
9:20 AM
Sun, Jul 24
72 °FPassing clouds.6 mph65%30.09 "HgN/A
8:50 AM70 °FPassing clouds.7 mph69%30.09 "HgN/A
8:20 AM68 °FPassing clouds.7 mph69%30.09 "HgN/A
7:50 AM66 °FPassing clouds.5 mph78%30.09 "HgN/A
7:20 AM64 °FScattered clouds.6 mph83%30.09 "HgN/A
6:50 AM64 °FScattered clouds.3 mph78%30.09 "HgN/A
6:20 AM63 °FBroken clouds.5 mph83%30.09 "HgN/A
5:50 AM63 °FPassing clouds.3 mph83%30.09 "HgN/A
5:20 AM63 °FPassing clouds.3 mph83%30.09 "HgN/A
4:50 AM63 °FPassing clouds.3 mph83%30.09 "HgN/A
4:20 AM64 °FPassing clouds.5 mph78%30.09 "HgN/A
3:50 AM64 °FPassing clouds.5 mph78%30.09 "HgN/A
3:20 AM64 °FPassing clouds.5 mph83%30.09 "HgN/A
2:50 AM64 °FPassing clouds.6 mph83%30.09 "HgN/A
2:20 AM64 °FPassing clouds.3 mph83%30.09 "HgN/A
1:50 AM66 °FPassing clouds.5 mph78%30.09 "HgN/A
1:20 AM66 °FPassing clouds.5 mph78%30.09 "HgN/A
12:50 AM66 °FPassing clouds.5 mph78%30.09 "HgN/A
12:20 AM66 °FPassing clouds.5 mph78%30.09 "HgN/A
11:50 PM
Sat, Jul 23
68 °FPassing clouds.6 mph73%30.09 "HgN/A
11:20 PM68 °FPassing clouds.7 mph73%30.09 "HgN/A
10:50 PM70 °FPassing clouds.7 mph69%30.09 "HgN/A
10:20 PM70 °FPassing clouds.8 mph69%30.09 "HgN/A
9:50 PM72 °FPassing clouds.9 mph65%30.09 "HgN/A
9:20 PM72 °FPassing clouds.10 mph65%30.07 "HgN/A
8:50 PM73 °FPassing clouds.9 mph61%30.07 "HgN/A
8:20 PM75 °FPassing clouds.10 mph57%30.07 "HgN/A
7:50 PM77 °FPassing clouds.9 mph51%30.07 "HgN/A
7:20 PM79 °FWarm.8 mph45%30.07 "HgN/A
6:50 PM79 °FPassing clouds.6 mph42%30.07 "HgN/A
6:20 PM81 °FPassing clouds.7 mph39%30.07 "HgN/A
5:50 PM81 °FSunny.7 mph37%30.07 "Hg10 mi
5:20 PM81 °FSunny.5 mph32%30.07 "Hg10 mi
4:50 PM82 °FPassing clouds.7 mph32%30.07 "HgN/A
4:20 PM82 °FPassing clouds.5 mph32%30.07 "HgN/A
3:50 PM81 °FSunny.6 mph34%30.07 "Hg10 mi
3:20 PM82 °FSunny.5 mph35%30.07 "Hg10 mi
2:50 PM81 °FPassing clouds.7 mph32%30.07 "HgN/A
2:20 PM82 °FSunny.5 mph30%30.07 "Hg10 mi
1:50 PM81 °FSunny.6 mph30%30.07 "Hg10 mi
1:20 PM81 °FPassing clouds.8 mph32%30.07 "HgN/A
12:50 PM81 °FPassing clouds.6 mph34%30.07 "HgN/A
12:20 PM79 °FPassing clouds.9 mph39%30.07 "HgN/A
11:50 AM79 °FSunny.9 mph39%30.07 "Hg10 mi
11:20 AM77 °FPassing clouds.7 mph42%30.07 "HgN/A
10:50 AM77 °FPassing clouds.7 mph44%30.07 "HgN/A
10:20 AM75 °FPassing clouds.7 mph47%30.07 "HgN/A
Weather by CustomWeather, © 2016

See weather overviewHow to use our weather pages